Location: Aciu?a
(46.2833°N, 22.4500°E)
Time: 13:31:42
(UTC+00:00)

Okean O Rocket - Pass Details

Date: 25 October 2021
Orbit: 623 x 644 km, 98.2° (Epoch: 06 December)

Event Time Altitude Azimuth Distance (km) Brightness Sun altitude
Rises 16:18:32 0° 154° (SSE) 2,893 4.8 -9.6°
Reaches altitude 10° 16:20:44 10° 150° (SSE) 1,993 3.9 -10.0°
Maximum altitude 16:24:58 57° 72° (ENE) 744 1.6 -10.7°
Drops below altitude 10° 16:29:16 10° 354° (N) 2,017 4.2 -11.5°
Sets 16:31:30 0° 351° (N) 2,932 5.1 -11.8°
